METEOR 2-5 DEB, 38273

Orbit data source: Space-Track

METEOR 2-5 DEB, 38273 is space debris in LEO originally from a launch on Wed, 31 Oct 1979 UTC launched from the Plesetsk Missile And Space Complex (PKMTR). Debris objects in space refer to the collection of defunct objects orbiting the Earth. Examples of debris include non-operational satellites, rocket bodies, and fragments generated from explosions, collisions, or faulty payload assembly.

Loading next visibility...
Identifier
38273, 1979-095BT
Orbit
LEO
Country
Flag of CISCIS
Related business
Manufacturer
Unknown
Mission
Spacecraft
Bus & Motor
Unknown
Mass
Unknown
Launch date (UTC)
1979-10-31 (46 years ago)
Launch vehicle
Unknown
Launch site
Plesetsk Missile And Space Complex (PKMTR)
Object type
Payload
Rocket body
Debris
Shape & HBR
Unknown shape, 0.1 m
Radar Cross Section
Small (<0.1 m²)

Expand to show TLE details & history
Last TLE update: 2 days ago

TLE from 2 days ago
0 METEOR 2-5 DEB
1 38273U 79095BT  25353.16882389  .00005007  00000-0  15490-2 0  9999
2 38273  81.2184 305.0361 0009770 357.6874   2.4267 14.41129214650001
Epoch: 2025-12-19T04:03Z
TLE epoch observation values (Epoch: 2025-12-19T04:03:06.384Z)
Latitude
0.00001°
Longitude
156.24566°
Altitude
750.747 km
Speed
7.483 km/s
True Right ascension
20h 20m 08s
True Declination
0° 00' 00"
Sunlit
Object was in daylight at epoch
Visualization orbit readout
Latitude
Unknown
Longitude
Unknown
Altitude
Unknown
Speed
Unknown
Apparent Right ascension
Unknown
Apparent Declination
Unknown
Sunlit
N/A
Visualization observer readout
Local Sidereal Time
13:26:57
Azimuth
Unknown
Elevation
Unknown
Doppler factor
Unknown
Orbital elements
Apogee altitude
758.87 km
Perigee altitude
744.938 km
Semi-major axis
7,130.041 km
Eccentricity
0.00098
Inclination
81.2184°
RAAN
305.0361°
Arg. of periapsis
357.6874°
True anomaly
2.43145°
Mean anomaly
2.4267°
Eccentric anomaly
2.42907°
Mean motion
3.605 °/min
Orbital period
99.86 mins
BSTAR
0.001549
Loading maneuver chart data...
Computing Atmospheric mass density...

Documentation

Showing up to 5 results
|